******** Week 364 almanac for PRN-1 ******** ID: 1 Health: 0 Eccentricity: 0.001662731171 Time of Applicability(s): 61440 Orbital Inclination(rad): 0.9579614147 Rate of Right Ascen(r/s): -7.771752296e-09 SQRT(A) (m 1/2): 5153.575195 Right Ascen at Week(rad): 2.636876648 Argument of Perigee(rad): 0.1339195938 Mean Anom(rad): 1.630999081 Af0(s): 0.0002434368042 Af1(s/s): -7.275958e-12 week: 364 ******** Week 364 almanac for PRN-2 ******** ID: 2 Health: 0 Eccentricity: 0.01684522629 Time of Applicability(s): 61440 Orbital Inclination(rad): 0.9630726866 Rate of Right Ascen(r/s): -7.703178011e-09 SQRT(A) (m 1/2): 5153.537109 Right Ascen at Week(rad): 2.474499389 Argument of Perigee(rad): -0.7953922583 Mean Anom(rad): 3.132325104 Af0(s): 5.351087646e-05 Af1(s/s): 7.275958e-12 week: 364 ******** Week 364 almanac for PRN-3 ******** ID: 3 Health: 0 Eccentricity: 0.006601333618 Time of Applicability(s): 61440 Orbital Inclination(rad): 0.9938122235 Rate of Right Ascen(r/s): -7.748894201e-09 SQRT(A) (m 1/2): 5153.568359 Right Ascen at Week(rad): -2.658784186 Argument of Perigee(rad): 1.203941227 Mean Anom(rad): -0.4544283263 Af0(s): 0.0004130135254 Af1(s/s): -1.455192e-11 week: 364 ******** Week 364 almanac for PRN-4 ******** ID: 4 Health: 0 Eccentricity: 0.003711700439 Time of Applicability(s): 61440 Orbital Inclination(rad): 0.9705388587 Rate of Right Ascen(r/s): -8.126052768e-09 SQRT(A) (m 1/2): 5153.667969 Right Ascen at Week(rad): -1.588640464 Argument of Perigee(rad): -2.871438639 Mean Anom(rad): 2.503588099 Af0(s): 4.069841309e-05 Af1(s/s): 0 week: 364 ******** Week 364 almanac for PRN-5 ******** ID: 5 Health: 0 Eccentricity: 0.005444526672 Time of Applicability(s): 61440 Orbital Inclination(rad): 0.9803539389 Rate of Right Ascen(r/s): -7.863184676e-09 SQRT(A) (m 1/2): 5153.672363 Right Ascen at Week(rad): -2.718859233 Argument of Perigee(rad): 1.417501987 Mean Anom(rad): -3.107523001 Af0(s): -0.0001823891846 Af1(s/s): 0 week: 364 ******** Week 364 almanac for PRN-6 ******** ID: 6 Health: 0 Eccentricity: 0.0038189888 Time of Applicability(s): 61440 Orbital Inclination(rad): 0.9867894677 Rate of Right Ascen(r/s): -7.508884204e-09 SQRT(A) (m 1/2): 5153.612793 Right Ascen at Week(rad): 2.58816789 Argument of Perigee(rad): -0.5427655462 Mean Anom(rad): 0.838723845 Af0(s): -0.0004838589111 Af1(s/s): 0 week: 364 ******** Week 364 almanac for PRN-7 ******** ID: 7 Health: 0 Eccentricity: 0.02064847946 Time of Applicability(s): 61440 Orbital Inclination(rad): 0.9511903276 Rate of Right Ascen(r/s): -7.794610391e-09 SQRT(A) (m 1/2): 5153.570801 Right Ascen at Week(rad): -0.5799001651 Argument of Perigee(rad): -1.983210208 Mean Anom(rad): -0.00411620675 Af0(s): -0.0001318930054 Af1(s/s): -3.637979e-12 week: 364 ******** Week 364 almanac for PRN-8 ******** ID: 8 Health: 0 Eccentricity: 0.01159620285 Time of Applicability(s): 61440 Orbital Inclination(rad): 0.9428732755 Rate of Right Ascen(r/s): -8.366062766e-09 SQRT(A) (m 1/2): 5153.633789 Right Ascen at Week(rad): 1.466518216 Argument of Perigee(rad): 0.5332013857 Mean Anom(rad): 2.8105599 Af0(s): 0.000371561438 Af1(s/s): -7.275958e-12 week: 364 ******** Week 364 almanac for PRN-9 ******** ID: 9 Health: 0 Eccentricity: 0.00334072113 Time of Applicability(s): 61440 Orbital Inclination(rad): 0.9647384938 Rate of Right Ascen(r/s): -8.194627053e-09 SQRT(A) (m 1/2): 5153.707031 Right Ascen at Week(rad): -1.653093872 Argument of Perigee(rad): 2.055060131 Mean Anom(rad): -2.87292693 Af0(s): 0.0006036931274 Af1(s/s): -3.637979e-12 week: 364 ******** Week 364 almanac for PRN-10 ******** ID: 10 Health: 0 Eccentricity: 0.01092815399 Time of Applicability(s): 61440 Orbital Inclination(rad): 0.9933448387 Rate of Right Ascen(r/s): -7.726036106e-09 SQRT(A) (m 1/2): 5153.605469 Right Ascen at Week(rad): -2.661293383 Argument of Perigee(rad): -2.255222902 Mean Anom(rad): -1.449368041 Af0(s): -0.0004665244019 Af1(s/s): 0 week: 364 ******** Week 364 almanac for PRN-11 ******** ID: 11 Health: 0 Eccentricity: 0.002207279205 Time of Applicability(s): 61440 Orbital Inclination(rad): 0.9636718978 Rate of Right Ascen(r/s): -7.748894201e-09 SQRT(A) (m 1/2): 5153.543457 Right Ascen at Week(rad): 2.606361816 Argument of Perigee(rad): -2.316750662 Mean Anom(rad): 1.974257243 Af0(s): -0.0003090064697 Af1(s/s): 1.455192e-11 week: 364 ******** Week 364 almanac for PRN-12 ******** ID: 12 Health: 0 Eccentricity: 0.00895357132 Time of Applicability(s): 61440 Orbital Inclination(rad): 0.95930964 Rate of Right Ascen(r/s): -8.011762293e-09 SQRT(A) (m 1/2): 5153.703613 Right Ascen at Week(rad): 0.5376475331 Argument of Perigee(rad): 1.568104745 Mean Anom(rad): -0.6907872021 Af0(s): -0.0004808442139 Af1(s/s): 0 week: 364 ******** Week 364 almanac for PRN-13 ******** ID: 13 Health: 0 Eccentricity: 0.01008176804 Time of Applicability(s): 61440 Orbital Inclination(rad): 0.9761235075 Rate of Right Ascen(r/s): -8.023191341e-09 SQRT(A) (m 1/2): 5153.620605 Right Ascen at Week(rad): -1.477570667 Argument of Perigee(rad): 0.9938937166 Mean Anom(rad): 2.577377219 Af0(s): 0.0005388771362 Af1(s/s): 0 week: 364 ******** Week 364 almanac for PRN-14 ******** ID: 14 Health: 0 Eccentricity: 0.006862640381 Time of Applicability(s): 61440 Orbital Inclination(rad): 0.94268752 Rate of Right Ascen(r/s): -8.114623721e-09 SQRT(A) (m 1/2): 5153.598633 Right Ascen at Week(rad): 0.4825916294 Argument of Perigee(rad): -2.736848678 Mean Anom(rad): -0.8320242888 Af0(s): 0.0005856049438 Af1(s/s): 0 week: 364 ******** Week 364 almanac for PRN-15 ******** ID: 15 Health: 0 Eccentricity: 0.01664543152 Time of Applicability(s): 61440 Orbital Inclination(rad): 0.9427054964 Rate of Right Ascen(r/s): -8.446066098e-09 SQRT(A) (m 1/2): 5153.646484 Right Ascen at Week(rad): -1.797849453 Argument of Perigee(rad): 1.505928714 Mean Anom(rad): 1.816681539 Af0(s): 0.0003150358643 Af1(s/s): 3.637979e-12 week: 364 ******** Week 364 almanac for PRN-16 ******** ID: 16 Health: 0 Eccentricity: 0.01501846313 Time of Applicability(s): 61440 Orbital Inclination(rad): 0.9584168152 Rate of Right Ascen(r/s): -8.023191341e-09 SQRT(A) (m 1/2): 5153.60498 Right Ascen at Week(rad): 0.5545737528 Argument of Perigee(rad): 0.9315955959 Mean Anom(rad): -2.432390193 Af0(s): 0.0001861575562 Af1(s/s): 7.275958e-12 week: 364 ******** Week 364 almanac for PRN-17 ******** ID: 17 Health: 0 Eccentricity: 0.01260948181 Time of Applicability(s): 61440 Orbital Inclination(rad): 0.9585246732 Rate of Right Ascen(r/s): -8.137481816e-09 SQRT(A) (m 1/2): 5153.547852 Right Ascen at Week(rad): 1.57168728 Argument of Perigee(rad): -1.117205024 Mean Anom(rad): 2.761820807 Af0(s): -7.913580322e-05 Af1(s/s): -1.091394e-11 week: 364 ******** Week 364 almanac for PRN-18 ******** ID: 18 Health: 0 Eccentricity: 0.005806446075 Time of Applicability(s): 61440 Orbital Inclination(rad): 0.9717432733 Rate of Right Ascen(r/s): -7.646032773e-09 SQRT(A) (m 1/2): 5153.591797 Right Ascen at Week(rad): 2.582754016 Argument of Perigee(rad): -2.869544383 Mean Anom(rad): 0.7775192849 Af0(s): -0.0003082527954 Af1(s/s): 1.091394e-11 week: 364 ******** Week 364 almanac for PRN-19 ******** ID: 19 Health: 0 Eccentricity: 0.01125240326 Time of Applicability(s): 61440 Orbital Inclination(rad): 0.9576857775 Rate of Right Ascen(r/s): -8.114623721e-09 SQRT(A) (m 1/2): 5153.66748 Right Ascen at Week(rad): 1.61557838 Argument of Perigee(rad): 2.943226019 Mean Anom(rad): -1.736779715 Af0(s): 0.0005494285767 Af1(s/s): 0 week: 364 ******** Week 364 almanac for PRN-20 ******** ID: 20 Health: 0 Eccentricity: 0.0022315979 Time of Applicability(s): 61440 Orbital Inclination(rad): 0.9601365515 Rate of Right Ascen(r/s): -8.263201338e-09 SQRT(A) (m 1/2): 5153.70166 Right Ascen at Week(rad): -1.647615209 Argument of Perigee(rad): -1.950943432 Mean Anom(rad): -0.748885601 Af0(s): 6.330864258e-05 Af1(s/s): 2.182787e-11 week: 364 ******** Week 364 almanac for PRN-21 ******** ID: 21 Health: 0 Eccentricity: 0.0008120536804 Time of Applicability(s): 61440 Orbital Inclination(rad): 0.9632224894 Rate of Right Ascen(r/s): -8.068907531e-09 SQRT(A) (m 1/2): 5153.727539 Right Ascen at Week(rad): -2.653348965 Argument of Perigee(rad): -0.2534307787 Mean Anom(rad): -1.051280927 Af0(s): 0.0003255873047 Af1(s/s): 3.637979e-12 week: 364 ******** Week 364 almanac for PRN-22 ******** ID: 22 Health: 0 Eccentricity: 0.01204586029 Time of Applicability(s): 61440 Orbital Inclination(rad): 0.957871533 Rate of Right Ascen(r/s): -7.988904198e-09 SQRT(A) (m 1/2): 5153.567871 Right Ascen at Week(rad): 0.5579300848 Argument of Perigee(rad): -0.993168671 Mean Anom(rad): -2.874133966 Af0(s): -2.110288086e-05 Af1(s/s): 7.275958e-12 week: 364 ******** Week 364 almanac for PRN-23 ******** ID: 23 Health: 0 Eccentricity: 0.00607252121 Time of Applicability(s): 61440 Orbital Inclination(rad): 0.9883414248 Rate of Right Ascen(r/s): -7.760323248e-09 SQRT(A) (m 1/2): 5153.662109 Right Ascen at Week(rad): -2.693496119 Argument of Perigee(rad): -2.738360563 Mean Anom(rad): -0.3759443864 Af0(s): 0.0004974250488 Af1(s/s): 3.637979e-12 week: 364 ******** Week 364 almanac for PRN-24 ******** ID: 24 Health: 0 Eccentricity: 0.01796245575 Time of Applicability(s): 61440 Orbital Inclination(rad): 0.9351314662 Rate of Right Ascen(r/s): -8.011762293e-09 SQRT(A) (m 1/2): 5153.597168 Right Ascen at Week(rad): -0.6888652321 Argument of Perigee(rad): 1.138454553 Mean Anom(rad): 0.9786879822 Af0(s): -4.748148193e-05 Af1(s/s): 1.818989e-11 week: 364 ******** Week 364 almanac for PRN-25 ******** ID: 25 Health: 0 Eccentricity: 0.01290273666 Time of Applicability(s): 61440 Orbital Inclination(rad): 0.9477268866 Rate of Right Ascen(r/s): -8.080336578e-09 SQRT(A) (m 1/2): 5153.657715 Right Ascen at Week(rad): 0.4435429051 Argument of Perigee(rad): 1.159113484 Mean Anom(rad): -0.8098486041 Af0(s): 0.000342921814 Af1(s/s): -3.637979e-12 week: 364 ******** Week 364 almanac for PRN-26 ******** ID: 26 Health: 0 Eccentricity: 0.0110168457 Time of Applicability(s): 61440 Orbital Inclination(rad): 0.9285341504 Rate of Right Ascen(r/s): -8.217485148e-09 SQRT(A) (m 1/2): 5153.672852 Right Ascen at Week(rad): 0.3685269002 Argument of Perigee(rad): 0.7112251742 Mean Anom(rad): -1.630865382 Af0(s): -0.0002743374512 Af1(s/s): -3.637979e-12 week: 364 ******** Week 364 almanac for PRN-27 ******** ID: 27 Health: 0 Eccentricity: 0.01438331604 Time of Applicability(s): 61440 Orbital Inclination(rad): 0.951957318 Rate of Right Ascen(r/s): -8.251772291e-09 SQRT(A) (m 1/2): 5153.605957 Right Ascen at Week(rad): 1.498796228 Argument of Perigee(rad): 0.889529843 Mean Anom(rad): 2.916789942 Af0(s): -6.783068848e-05 Af1(s/s): -1.455192e-11 week: 364 ******** Week 364 almanac for PRN-28 ******** ID: 28 Health: 0 Eccentricity: 0.0003752708435 Time of Applicability(s): 61440 Orbital Inclination(rad): 0.9621019644 Rate of Right Ascen(r/s): -7.726036106e-09 SQRT(A) (m 1/2): 5153.516602 Right Ascen at Week(rad): -0.6053396785 Argument of Perigee(rad): -0.2815289175 Mean Anom(rad): 0.5879970071 Af0(s): -0.0004484362183 Af1(s/s): 7.275958e-12 week: 364 ******** Week 364 almanac for PRN-29 ******** ID: 29 Health: 0 Eccentricity: 0.003452777863 Time of Applicability(s): 61440 Orbital Inclination(rad): 0.961179179 Rate of Right Ascen(r/s): -8.126052768e-09 SQRT(A) (m 1/2): 5153.686035 Right Ascen at Week(rad): 1.588498151 Argument of Perigee(rad): 2.748012358 Mean Anom(rad): 2.765911547 Af0(s): -0.0002765984741 Af1(s/s): 7.275958e-12 week: 364 ******** Week 364 almanac for PRN-30 ******** ID: 30 Health: 0 Eccentricity: 0.008150577545 Time of Applicability(s): 61440 Orbital Inclination(rad): 0.9364497309 Rate of Right Ascen(r/s): -7.966046103e-09 SQRT(A) (m 1/2): 5153.696777 Right Ascen at Week(rad): -0.5892879328 Argument of Perigee(rad): -2.30014914 Mean Anom(rad): -0.2075383129 Af0(s): 0.000133400354 Af1(s/s): 1.455192e-11 week: 364 ******** Week 364 almanac for PRN-31 ******** ID: 31 Health: 0 Eccentricity: 0.01083469391 Time of Applicability(s): 61440 Orbital Inclination(rad): 0.9549533742 Rate of Right Ascen(r/s): -7.783181343e-09 SQRT(A) (m 1/2): 5153.537109 Right Ascen at Week(rad): -0.5555699415 Argument of Perigee(rad): 0.939966577 Mean Anom(rad): -1.08908816 Af0(s): -0.0001251099365 Af1(s/s): 3.637979e-12 week: 364 ******** Week 364 almanac for PRN-32 ******** ID: 32 Health: 0 Eccentricity: 0.009376525879 Time of Applicability(s): 61440 Orbital Inclination(rad): 0.9677705027 Rate of Right Ascen(r/s): -8.148910863e-09 SQRT(A) (m 1/2): 5153.688477 Right Ascen at Week(rad): -1.63599538 Argument of Perigee(rad): -1.986202145 Mean Anom(rad): -2.808136465 Af0(s): -1.959553223e-05 Af1(s/s): 1.818989e-11 week: 364